Wetterdaten: aktuell Montag, 13.07.2020 16:40
Datum Zeit Temp. I. Temp. A. Feuchte A. Luftdruck Regen Wind Richtung Richtung Sonnenschein Taupunkt Windchill Windben
13.07.2020 16:40 24,0 C 22,9 C 31 % 1021,6 hPa 0,0 l/m 2,3 km/h (1 Bft) NW 315 10 min 4,9 C 22,9 C 0,0 km/h (0 Bft)
13.07.2020 16:30 23,8 C 23,2 C 30 % 1021,6 hPa 0,0 l/m 2,3 km/h (1 Bft) O-NO 67 10 min 4,7 C 23,2 C 2,9 km/h (1 Bft)
13.07.2020 16:20 23,7 C 22,3 C 31 % 1021,6 hPa 0,0 l/m 3,7 km/h (1 Bft) O 90 10 min 4,4 C 22,3 C 2,3 km/h (1 Bft)
13.07.2020 16:10 23,6 C 22,9 C 31 % 1021,6 hPa 0,0 l/m 4,0 km/h (1 Bft) O 90 10 min 4,9 C 22,9 C 10,0 km/h (2 Bft)
13.07.2020 16:00 23,5 C 22,2 C 32 % 1021,6 hPa 0,0 l/m 2,9 km/h (1 Bft) S-SO 157 10 min 4,7 C 22,2 C 9,5 km/h (2 Bft)
13.07.2020 15:50 23,6 C 22,4 C 31 % 1021,8 hPa 0,0 l/m 2,4 km/h (1 Bft) N-NW 337 10 min 4,4 C 22,4 C 3,1 km/h (1 Bft)
13.07.2020 15:40 23,4 C 22,6 C 31 % 1021,8 hPa 0,0 l/m 1,3 km/h (1 Bft) SO 135 10 min 4,6 C 22,6 C 0,0 km/h (0 Bft)
13.07.2020 15:30 23,4 C 22,1 C 31 % 1021,8 hPa 0,0 l/m 0,8 km/h (0 Bft) NW 315 10 min 4,2 C 22,1 C 0,0 km/h (0 Bft)
13.07.2020 15:20 23,4 C 22,0 C 32 % 1021,8 hPa 0,0 l/m 2,4 km/h (1 Bft) SO 135 0 min 4,5 C 22,0 C 1,8 km/h (1 Bft)
13.07.2020 15:10 23,5 C 22,2 C 31 % 1022,1 hPa 0,0 l/m 3,5 km/h (1 Bft) O-SO 112 10 min 4,3 C 22,2 C 3,7 km/h (1 Bft)
13.07.2020 15:00 23,5 C 22,8 C 32 % 1022,1 hPa 0,0 l/m 1,9 km/h (1 Bft) O 90 10 min 5,2 C 22,8 C 6,6 km/h (2 Bft)
13.07.2020 14:50 23,4 C 22,6 C 33 % 1022,4 hPa 0,0 l/m 2,4 km/h (1 Bft) O-SO 112 10 min 5,5 C 22,6 C 2,4 km/h (1 Bft)
13.07.2020 14:40 23,4 C 22,0 C 33 % 1022,4 hPa 0,0 l/m 1,4 km/h (1 Bft) SW 225 10 min 5,0 C 22,0 C 0,0 km/h (0 Bft)
13.07.2020 14:30 23,5 C 21,9 C 33 % 1022,6 hPa 0,0 l/m 1,4 km/h (1 Bft) S-SO 157 10 min 4,9 C 21,9 C 1,8 km/h (1 Bft)
13.07.2020 14:20 23,5 C 21,9 C 33 % 1022,6 hPa 0,0 l/m 1,8 km/h (1 Bft) SW 225 10 min 4,9 C 21,9 C 0,0 km/h (0 Bft)
13.07.2020 14:10 23,4 C 22,7 C 32 % 1022,6 hPa 0,0 l/m 3,4 km/h (1 Bft) NO 45 10 min 5,2 C 22,7 C 5,3 km/h (1 Bft)
13.07.2020 14:00 23,4 C 22,6 C 32 % 1022,6 hPa 0,0 l/m 3,7 km/h (1 Bft) NO 45 10 min 5,1 C 22,6 C 7,2 km/h (2 Bft)
13.07.2020 13:50 23,2 C 22,0 C 33 % 1022,6 hPa 0,0 l/m 1,6 km/h (1 Bft) O-NO 67 10 min 5,0 C 22,0 C 3,1 km/h (1 Bft)
13.07.2020 13:40 23,2 C 22,1 C 32 % 1022,6 hPa 0,0 l/m 1,4 km/h (1 Bft) W-NW 292 10 min 4,6 C 22,1 C 5,8 km/h (2 Bft)
13.07.2020 13:30 23,1 C 21,9 C 32 % 1022,8 hPa 0,0 l/m 1,9 km/h (1 Bft) SW 225 10 min 4,5 C 21,9 C 1,8 km/h (1 Bft)
13.07.2020 13:20 23,0 C 22,2 C 32 % 1022,8 hPa 0,0 l/m 3,5 km/h (1 Bft) W-NW 292 10 min 4,7 C 22,2 C 4,8 km/h (1 Bft)
13.07.2020 13:10 22,8 C 21,7 C 34 % 1022,8 hPa 0,0 l/m 2,6 km/h (1 Bft) W 270 10 min 5,2 C 21,7 C 3,7 km/h (1 Bft)
13.07.2020 13:00 22,7 C 20,9 C 38 % 1022,8 hPa 0,0 l/m 1,0 km/h (0 Bft) W-SW 247 10 min 6,0 C 20,9 C 1,8 km/h (1 Bft)
13.07.2020 12:50 22,7 C 20,4 C 35 % 1022,9 hPa 0,0 l/m 2,3 km/h (1 Bft) SO 135 10 min 4,4 C 20,4 C 2,3 km/h (1 Bft)
13.07.2020 12:40 22,6 C 20,9 C 36 % 1022,9 hPa 0,0 l/m 2,3 km/h (1 Bft) S-SO 157 10 min 5,3 C 20,9 C 2,7 km/h (1 Bft)
13.07.2020 12:30 22,5 C 20,6 C 40 % 1022,9 hPa 0,0 l/m 1,4 km/h (1 Bft) SO 135 10 min 6,5 C 20,6 C 1,6 km/h (1 Bft)
13.07.2020 12:20 22,5 C 19,5 C 40 % 1022,9 hPa 0,0 l/m 0,8 km/h (0 Bft) S 180 0 min 5,5 C 19,5 C 3,1 km/h (1 Bft)
13.07.2020 12:10 22,5 C 18,6 C 39 % 1023,0 hPa 0,0 l/m 0,8 km/h (0 Bft) SW 225 0 min 4,4 C 18,6 C 0,0 km/h (0 Bft)
13.07.2020 12:00 22,5 C 18,9 C 39 % 1023,0 hPa 0,0 l/m 1,6 km/h (1 Bft) W-SW 247 0 min 4,6 C 18,9 C 1,8 km/h (1 Bft)
13.07.2020 11:50 22,5 C 18,9 C 38 % 1023,1 hPa 0,0 l/m 0,6 km/h (0 Bft) O-SO 112 10 min 4,3 C 18,9 C 3,1 km/h (1 Bft)
13.07.2020 11:40 22,5 C 19,3 C 37 % 1023,1 hPa 0,0 l/m 1,4 km/h (1 Bft) SO 135 10 min 4,2 C 19,3 C 0,0 km/h (0 Bft)
13.07.2020 11:30 22,5 C 19,7 C 35 % 1023,1 hPa 0,0 l/m 2,4 km/h (1 Bft) N-NW 337 10 min 3,8 C 19,7 C 1,9 km/h (1 Bft)
13.07.2020 11:20 22,5 C 20,0 C 37 % 1023,1 hPa 0,0 l/m 1,6 km/h (1 Bft) SW 225 10 min 4,9 C 20,0 C 0,0 km/h (0 Bft)
13.07.2020 11:10 22,4 C 19,7 C 36 % 1023,2 hPa 0,0 l/m 1,8 km/h (1 Bft) NW 315 10 min 4,2 C 19,7 C 2,6 km/h (1 Bft)
13.07.2020 11:00 22,4 C 19,4 C 37 % 1023,2 hPa 0,0 l/m 1,1 km/h (1 Bft) W-SW 247 10 min 4,3 C 19,4 C 0,0 km/h (0 Bft)
13.07.2020 10:50 22,3 C 19,4 C 38 % 1023,1 hPa 0,0 l/m 1,6 km/h (1 Bft) W 270 10 min 4,7 C 19,4 C 0,0 km/h (0 Bft)
13.07.2020 10:40 22,3 C 19,5 C 42 % 1023,1 hPa 0,0 l/m 1,3 km/h (1 Bft) W-NW 292 10 min 6,2 C 19,5 C 0,0 km/h (0 Bft)
13.07.2020 10:30 22,2 C 19,0 C 40 % 1023,2 hPa 0,0 l/m 1,6 km/h (1 Bft) S-SO 157 10 min 5,1 C 19,0 C 3,1 km/h (1 Bft)
13.07.2020 10:20 22,2 C 19,0 C 40 % 1023,2 hPa 0,0 l/m 3,9 km/h (1 Bft) SW 225 10 min 5,1 C 19,0 C 9,0 km/h (2 Bft)
13.07.2020 10:10 22,2 C 18,9 C 41 % 1023,3 hPa 0,0 l/m 1,4 km/h (1 Bft) W-NW 292 10 min 5,4 C 18,9 C 7,2 km/h (2 Bft)
13.07.2020 10:00 22,1 C 19,0 C 43 % 1023,3 hPa 0,0 l/m 0,6 km/h (0 Bft) S-SW 202 10 min 6,1 C 19,0 C 0,0 km/h (0 Bft)
13.07.2020 09:50 22,1 C 18,9 C 45 % 1023,3 hPa 0,0 l/m 2,1 km/h (1 Bft) SO 135 10 min 6,7 C 18,9 C 4,2 km/h (1 Bft)
13.07.2020 09:40 22,0 C 18,7 C 45 % 1023,3 hPa 0,0 l/m 0,3 km/h (0 Bft) O-NO 67 10 min 6,5 C 18,7 C 2,1 km/h (1 Bft)
13.07.2020 09:30 22,0 C 18,3 C 44 % 1023,5 hPa 0,0 l/m 0,2 km/h (0 Bft) W 270 10 min 5,8 C 18,3 C 0,0 km/h (0 Bft)
13.07.2020 09:20 21,9 C 18,5 C 47 % 1023,5 hPa 0,0 l/m 1,3 km/h (1 Bft) O 90 10 min 7,0 C 18,5 C 0,0 km/h (0 Bft)
13.07.2020 09:10 21,8 C 18,2 C 46 % 1023,5 hPa 0,0 l/m 0,3 km/h (0 Bft) O-NO 67 10 min 6,4 C 18,2 C 2,1 km/h (1 Bft)
13.07.2020 09:00 21,8 C 18,1 C 46 % 1023,5 hPa 0,0 l/m 0,6 km/h (0 Bft) W-SW 247 10 min 6,3 C 18,1 C 3,9 km/h (1 Bft)
13.07.2020 08:50 21,8 C 18,2 C 48 % 1023,5 hPa 0,0 l/m 0,8 km/h (0 Bft) SO 135 10 min 7,0 C 18,2 C 0,0 km/h (0 Bft)
13.07.2020 08:40 21,7 C 18,2 C 49 % 1023,5 hPa 0,0 l/m 0,0 km/h (0 Bft) O 90 10 min 7,3 C 18,2 C 0,0 km/h (0 Bft)
13.07.2020 08:30 21,7 C 17,8 C 50 % 1023,5 hPa 0,0 l/m 0,0 km/h (0 Bft) N-NW 337 10 min 7,2 C 17,8 C 0,0 km/h (0 Bft)
13.07.2020 08:20 21,6 C 16,8 C 56 % 1023,5 hPa 0,0 l/m 0,0 km/h (0 Bft) NW 315 10 min 8,0 C 16,8 C 0,0 km/h (0 Bft)
13.07.2020 08:10 21,6 C 14,7 C 62 % 1023,4 hPa 0,0 l/m 0,0 km/h (0 Bft) SO 135 10 min 7,5 C 14,7 C 0,0 km/h (0 Bft)
13.07.2020 08:00 21,6 C 13,1 C 66 % 1023,4 hPa 0,0 l/m 0,0 km/h (0 Bft) S 180 10 min 6,9 C 13,1 C 0,0 km/h (0 Bft)
13.07.2020 07:50 21,6 C 12,5 C 68 % 1023,5 hPa 0,0 l/m 0,0 km/h (0 Bft) W-NW 292 10 min 6,8 C 12,5 C 0,0 km/h (0 Bft)
13.07.2020 07:40 21,6 C 12,2 C 69 % 1023,5 hPa 0,0 l/m 0,0 km/h (0 Bft) O-SO 112 10 min 6,7 C 12,2 C 0,0 km/h (0 Bft)
13.07.2020 07:30 21,6 C 11,7 C 71 % 1023,6 hPa 0,0 l/m 0,0 km/h (0 Bft) O-NO 67 10 min 6,6 C 11,7 C 0,0 km/h (0 Bft)
13.07.2020 07:20 21,8 C 11,3 C 72 % 1023,6 hPa 0,0 l/m 0,0 km/h (0 Bft) O-NO 67 10 min 6,4 C 11,3 C 0,0 km/h (0 Bft)
13.07.2020 07:10 21,9 C 11,0 C 73 % 1023,9 hPa 0,0 l/m 0,0 km/h (0 Bft) O-SO 112 10 min 6,4 C 11,0 C 0,0 km/h (0 Bft)
13.07.2020 07:00 22,1 C 10,5 C 74 % 1023,9 hPa 0,0 l/m 0,0 km/h (0 Bft) NO 45 10 min 6,1 C 10,5 C 0,0 km/h (0 Bft)
13.07.2020 06:50 22,2 C 10,0 C 74 % 1023,8 hPa 0,0 l/m 0,0 km/h (0 Bft) O 90 0 min 5,6 C 10,0 C 0,0 km/h (0 Bft)
13.07.2020 06:40 22,2 C 9,6 C 74 % 1023,8 hPa 0,0 l/m 0,0 km/h (0 Bft) O-SO 112 0 min 5,2 C 9,6 C 0,0 km/h (0 Bft)
13.07.2020 06:30 22,2 C 9,2 C 74 % 1023,8 hPa 0,0 l/m 0,0 km/h (0 Bft) O-NO 67 0 min 4,8 C 9,2 C 0,0 km/h (0 Bft)
13.07.2020 06:20 22,3 C 8,7 C 75 % 1023,8 hPa 0,0 l/m 0,0 km/h (0 Bft) SO 135 0 min 4,5 C 8,7 C 0,0 km/h (0 Bft)
13.07.2020 06:10 22,2 C 8,2 C 74 % 1023,6 hPa 0,0 l/m 0,0 km/h (0 Bft) O 90 0 min 3,8 C 8,2 C 0,0 km/h (0 Bft)
13.07.2020 06:00 22,3 C 7,8 C 73 % 1023,6 hPa 0,0 l/m 0,0 km/h (0 Bft) O 90 0 min 3,3 C 7,8 C 0,0 km/h (0 Bft)
13.07.2020 05:50 22,3 C 7,5 C 73 % 1023,8 hPa 0,0 l/m 0,0 km/h (0 Bft) O 90 0 min 3,0 C 7,5 C 0,0 km/h (0 Bft)
13.07.2020 05:40 22,3 C 7,5 C 73 % 1023,8 hPa 0,0 l/m 0,0 km/h (0 Bft) O-NO 67 0 min 3,0 C 7,5 C 0,0 km/h (0 Bft)
13.07.2020 05:30 22,2 C 7,4 C 72 % 1023,7 hPa 0,0 l/m 0,0 km/h (0 Bft) O 90 0 min 2,7 C 7,4 C 0,0 km/h (0 Bft)
13.07.2020 05:20 22,2 C 7,0 C 71 % 1023,7 hPa 0,0 l/m 0,0 km/h (0 Bft) O-SO 112 0 min 2,1 C 7,0 C 0,0 km/h (0 Bft)
13.07.2020 05:09 22,4 C 6,9 C 70 % 1023,8 hPa 0,0 l/m 0,0 km/h (0 Bft) N-NO 22 0 min 1,8 C 6,9 C 0,0 km/h (0 Bft)
13.07.2020 05:00 22,4 C 7,0 C 70 % 1023,8 hPa 0,0 l/m 0,0 km/h (0 Bft) N-NO 22 0 min 1,9 C 7,0 C 0,0 km/h (0 Bft)
13.07.2020 04:50 22,4 C 7,1 C 70 % 1024,1 hPa 0,0 l/m 0,0 km/h (0 Bft) N-NO 22 0 min 2,0 C 7,1 C 0,0 km/h (0 Bft)
13.07.2020 04:40 22,4 C 7,2 C 70 % 1024,1 hPa 0,0 l/m 0,0 km/h (0 Bft) N-NO 22 0 min 2,1 C 7,2 C 0,0 km/h (0 Bft)
13.07.2020 04:30 22,4 C 7,3 C 69 % 1023,9 hPa 0,0 l/m 0,0 km/h (0 Bft) N-NW 337 0 min 2,0 C 7,3 C 0,0 km/h (0 Bft)
13.07.2020 04:20 22,4 C 7,5 C 69 % 1023,9 hPa 0,0 l/m 0,0 km/h (0 Bft) N-NW 337 0 min 2,2 C 7,5 C 0,0 km/h (0 Bft)
13.07.2020 04:10 22,4 C 7,5 C 69 % 1024,1 hPa 0,0 l/m 0,0 km/h (0 Bft) N-NW 337 0 min 2,2 C 7,5 C 0,0 km/h (0 Bft)
13.07.2020 04:00 22,5 C 7,4 C 69 % 1024,1 hPa 0,0 l/m 0,0 km/h (0 Bft) N-NW 337 0 min 2,1 C 7,4 C 0,0 km/h (0 Bft)
13.07.2020 03:50 22,5 C 7,6 C 69 % 1024,2 hPa 0,0 l/m 0,0 km/h (0 Bft) N-NW 337 0 min 2,3 C 7,6 C 0,0 km/h (0 Bft)
13.07.2020 03:40 22,5 C 7,7 C 69 % 1024,2 hPa 0,0 l/m 0,0 km/h (0 Bft) N-NW 337 0 min 2,4 C 7,7 C 0,0 km/h (0 Bft)
13.07.2020 03:30 22,5 C 7,8 C 68 % 1024,3 hPa 0,0 l/m 0,0 km/h (0 Bft) N-NW 337 0 min 2,3 C 7,8 C 0,0 km/h (0 Bft)
13.07.2020 03:20 22,5 C 8,0 C 68 % 1024,3 hPa 0,0 l/m 0,0 km/h (0 Bft) N-NW 337 0 min 2,5 C 8,0 C 0,0 km/h (0 Bft)
13.07.2020 03:10 22,6 C 8,0 C 68 % 1024,3 hPa 0,0 l/m 0,0 km/h (0 Bft) N-NW 337 0 min 2,5 C 8,0 C 0,0 km/h (0 Bft)
13.07.2020 03:00 22,6 C 8,0 C 67 % 1024,3 hPa 0,0 l/m 0,0 km/h (0 Bft) W-NW 292 0 min 2,3 C 8,0 C 0,0 km/h (0 Bft)
13.07.2020 02:50 22,6 C 8,1 C 67 % 1024,2 hPa 0,0 l/m 0,0 km/h (0 Bft) W-NW 292 0 min 2,3 C 8,1 C 0,0 km/h (0 Bft)
13.07.2020 02:40 22,6 C 8,2 C 66 % 1024,2 hPa 0,0 l/m 0,0 km/h (0 Bft) W-NW 292 0 min 2,2 C 8,2 C 0,0 km/h (0 Bft)
13.07.2020 02:30 22,6 C 8,3 C 66 % 1024,4 hPa 0,0 l/m 0,0 km/h (0 Bft) W-NW 292 0 min 2,3 C 8,3 C 0,0 km/h (0 Bft)
13.07.2020 02:20 22,6 C 8,4 C 65 % 1024,4 hPa 0,0 l/m 0,0 km/h (0 Bft) W-NW 292 0 min 2,2 C 8,4 C 0,0 km/h (0 Bft)
13.07.2020 02:10 22,7 C 8,6 C 65 % 1024,3 hPa 0,0 l/m 0,0 km/h (0 Bft) W-NW 292 0 min 2,4 C 8,6 C 0,0 km/h (0 Bft)
13.07.2020 02:00 22,7 C 8,8 C 65 % 1024,3 hPa 0,0 l/m 0,0 km/h (0 Bft) W-NW 292 0 min 2,6 C 8,8 C 0,0 km/h (0 Bft)
13.07.2020 01:50 22,7 C 9,0 C 64 % 1024,5 hPa 0,0 l/m 0,0 km/h (0 Bft) W-NW 292 0 min 2,6 C 9,0 C 0,0 km/h (0 Bft)
13.07.2020 01:40 22,7 C 9,1 C 64 % 1024,5 hPa 0,0 l/m 0,0 km/h (0 Bft) N-NW 337 0 min 2,7 C 9,1 C 0,0 km/h (0 Bft)
13.07.2020 01:30 22,7 C 9,2 C 63 % 1024,4 hPa 0,0 l/m 0,0 km/h (0 Bft) N-NW 337 0 min 2,5 C 9,2 C 0,0 km/h (0 Bft)
13.07.2020 01:20 22,7 C 9,4 C 63 % 1024,4 hPa 0,0 l/m 0,0 km/h (0 Bft) N-NW 337 0 min 2,7 C 9,4 C 0,0 km/h (0 Bft)
13.07.2020 01:10 22,8 C 9,6 C 62 % 1024,4 hPa 0,0 l/m 0,0 km/h (0 Bft) N-NW 337 0 min 2,7 C 9,6 C 0,0 km/h (0 Bft)
13.07.2020 01:00 22,8 C 9,8 C 61 % 1024,4 hPa 0,0 l/m 0,0 km/h (0 Bft) W 270 0 min 2,6 C 9,8 C 0,0 km/h (0 Bft)
13.07.2020 00:50 22,8 C 9,8 C 61 % 1024,4 hPa 0,0 l/m 0,0 km/h (0 Bft) W 270 0 min 2,6 C 9,8 C 0,0 km/h (0 Bft)
13.07.2020 00:40 22,8 C 10,0 C 59 % 1024,4 hPa 0,0 l/m 0,0 km/h (0 Bft) W 270 0 min 2,4 C 10,0 C 0,0 km/h (0 Bft)
13.07.2020 00:30 22,8 C 10,2 C 59 % 1024,6 hPa 0,0 l/m 0,0 km/h (0 Bft) W 270 0 min 2,6 C 10,2 C 0,0 km/h (0 Bft)
13.07.2020 00:20 22,8 C 10,6 C 59 % 1024,6 hPa 0,0 l/m 0,0 km/h (0 Bft) W 270 0 min 2,9 C 10,6 C 0,0 km/h (0 Bft)
13.07.2020 00:10 22,9 C 10,9 C 58 % 1024,4 hPa 0,0 l/m 0,0 km/h (0 Bft) W 270 0 min 3,0 C 10,9 C 0,0 km/h (0 Bft)
13.07.2020 00:00 22,9 C 11,1 C 58 % 1024,4 hPa 0,0 l/m 0,0 km/h (0 Bft) W-SW 247 0 min 3,2 C 11,1 C 0,0 km/h (0 Bft)
12.07.2020 23:50 22,9 C 11,3 C 59 % 1024,4 hPa 0,0 l/m 0,0 km/h (0 Bft) N-NW 337 0 min 3,6 C 11,3 C 0,0 km/h (0 Bft)
12.07.2020 23:40 22,9 C 11,4 C 59 % 1024,4 hPa 0,0 l/m 0,0 km/h (0 Bft) W-NW 292 0 min 3,7 C 11,4 C 0,0 km/h (0 Bft)
12.07.2020 23:30 23,0 C 11,7 C 58 % 1024,5 hPa 0,0 l/m 0,0 km/h (0 Bft) W-NW 292 0 min 3,7 C 11,7 C 0,0 km/h (0 Bft)
12.07.2020 23:20 23,0 C 11,9 C 58 % 1024,5 hPa 0,0 l/m 0,0 km/h (0 Bft) W-NW 292 0 min 3,9 C 11,9 C 0,0 km/h (0 Bft)
12.07.2020 23:10 23,0 C 12,3 C 57 % 1024,4 hPa 0,0 l/m 0,0 km/h (0 Bft) W-NW 292 0 min 4,0 C 12,3 C 0,0 km/h (0 Bft)
12.07.2020 23:00 23,0 C 12,7 C 56 % 1024,4 hPa 0,0 l/m 0,0 km/h (0 Bft) W-NW 292 0 min 4,2 C 12,7 C 0,0 km/h (0 Bft)
12.07.2020 22:50 23,1 C 13,1 C 54 % 1024,7 hPa 0,0 l/m 0,0 km/h (0 Bft) W-NW 292 0 min 4,0 C 13,1 C 0,0 km/h (0 Bft)
12.07.2020 22:40 23,2 C 13,3 C 54 % 1024,7 hPa 0,0 l/m 0,0 km/h (0 Bft) W-NW 292 0 min 4,2 C 13,3 C 0,0 km/h (0 Bft)
12.07.2020 22:30 23,2 C 13,3 C 53 % 1024,8 hPa 0,0 l/m 0,0 km/h (0 Bft) W-SW 247 0 min 3,9 C 13,3 C 0,0 km/h (0 Bft)
12.07.2020 22:20 23,2 C 13,6 C 52 % 1024,8 hPa 0,0 l/m 0,0 km/h (0 Bft) W-SW 247 0 min 3,9 C 13,6 C 0,0 km/h (0 Bft)
12.07.2020 22:10 23,2 C 13,8 C 51 % 1024,8 hPa 0,0 l/m 0,0 km/h (0 Bft) SW 225 0 min 3,8 C 13,8 C 0,0 km/h (0 Bft)
12.07.2020 22:00 23,3 C 13,8 C 50 % 1024,8 hPa 0,0 l/m 0,0 km/h (0 Bft) SW 225 0 min 3,6 C 13,8 C 0,0 km/h (0 Bft)
12.07.2020 21:50 23,2 C 14,2 C 48 % 1024,6 hPa 0,0 l/m 0,0 km/h (0 Bft) W-SW 247 0 min 3,4 C 14,2 C 0,0 km/h (0 Bft)
12.07.2020 21:40 23,2 C 14,9 C 46 % 1024,6 hPa 0,0 l/m 0,0 km/h (0 Bft) W-SW 247 0 min 3,4 C 14,9 C 0,0 km/h (0 Bft)
12.07.2020 21:30 23,4 C 15,7 C 44 % 1024,6 hPa 0,0 l/m 0,2 km/h (0 Bft) W 270 0 min 3,5 C 15,7 C 0,0 km/h (0 Bft)
12.07.2020 21:20 23,4 C 16,6 C 40 % 1024,6 hPa 0,0 l/m 1,3 km/h (1 Bft) W-NW 292 0 min 2,9 C 16,6 C 1,6 km/h (1 Bft)
12.07.2020 21:10 23,4 C 17,1 C 39 % 1024,6 hPa 0,0 l/m 0,6 km/h (0 Bft) W 270 0 min 3,0 C 17,1 C 2,1 km/h (1 Bft)
12.07.2020 21:00 23,4 C 17,6 C 39 % 1024,6 hPa 0,0 l/m 0,3 km/h (0 Bft) W-NW 292 0 min 3,5 C 17,6 C 0,0 km/h (0 Bft)
12.07.2020 20:50 23,5 C 18,1 C 37 % 1024,7 hPa 0,0 l/m 0,5 km/h (0 Bft) W 270 10 min 3,2 C 18,1 C 1,6 km/h (1 Bft)
12.07.2020 20:40 23,5 C 17,9 C 38 % 1024,7 hPa 0,0 l/m 0,3 km/h (0 Bft) W-NW 292 10 min 3,4 C 17,9 C 0,0 km/h (0 Bft)
12.07.2020 20:30 23,5 C 18,1 C 37 % 1024,4 hPa 0,0 l/m 0,6 km/h (0 Bft) W-SW 247 10 min 3,2 C 18,1 C 0,0 km/h (0 Bft)
12.07.2020 20:20 23,6 C 18,3 C 38 % 1024,4 hPa 0,0 l/m 0,5 km/h (0 Bft) W 270 10 min 3,7 C 18,3 C 0,0 km/h (0 Bft)
12.07.2020 20:10 23,6 C 18,6 C 36 % 1024,6 hPa 0,0 l/m 1,3 km/h (1 Bft) W-NW 292 10 min 3,2 C 18,6 C 1,8 km/h (1 Bft)
12.07.2020 20:00 23,5 C 18,7 C 35 % 1024,6 hPa 0,0 l/m 1,4 km/h (1 Bft) W-SW 247 0 min 2,9 C 18,7 C 1,9 km/h (1 Bft)
12.07.2020 19:50 23,5 C 18,8 C 34 % 1024,6 hPa 0,0 l/m 2,7 km/h (1 Bft) W 270 0 min 2,6 C 18,8 C 2,6 km/h (1 Bft)
12.07.2020 19:40 23,6 C 19,2 C 33 % 1024,6 hPa 0,0 l/m 2,4 km/h (1 Bft) NW 315 0 min 2,5 C 19,2 C 5,3 km/h (1 Bft)
12.07.2020 19:30 23,7 C 20,1 C 32 % 1024,7 hPa 0,0 l/m 2,9 km/h (1 Bft) W 270 0 min 2,9 C 20,1 C 4,2 km/h (1 Bft)
12.07.2020 19:20 23,8 C 21,9 C 31 % 1024,7 hPa 0,0 l/m 3,9 km/h (1 Bft) NW 315 0 min 4,0 C 21,9 C 5,5 km/h (1 Bft)
12.07.2020 19:10 23,9 C 22,5 C 31 % 1024,6 hPa 0,0 l/m 2,1 km/h (1 Bft) W-SW 247 0 min 4,5 C 22,5 C 5,5 km/h (1 Bft)
12.07.2020 19:00 23,9 C 21,6 C 31 % 1024,6 hPa 0,0 l/m 2,4 km/h (1 Bft) W-SW 247 10 min 3,7 C 21,6 C 4,8 km/h (1 Bft)
12.07.2020 18:50 23,9 C 20,6 C 31 % 1024,9 hPa 0,0 l/m 3,5 km/h (1 Bft) W-NW 292 0 min 2,9 C 20,6 C 3,1 km/h (1 Bft)
12.07.2020 18:40 24,0 C 20,7 C 31 % 1024,9 hPa 0,0 l/m 3,1 km/h (1 Bft) W 270 10 min 3,0 C 20,7 C 4,2 km/h (1 Bft)
12.07.2020 18:30 24,0 C 20,0 C 31 % 1024,9 hPa 0,0 l/m 4,0 km/h (1 Bft) W 270 0 min 2,4 C 20,0 C 3,5 km/h (1 Bft)
12.07.2020 18:20 24,1 C 20,8 C 30 % 1024,9 hPa 0,0 l/m 5,0 km/h (1 Bft) W-NW 292 10 min 2,6 C 20,8 C 5,6 km/h (1 Bft)
12.07.2020 18:10 24,2 C 20,8 C 30 % 1025,0 hPa 0,0 l/m 5,3 km/h (1 Bft) W-NW 292 10 min 2,6 C 20,8 C 3,4 km/h (1 Bft)
12.07.2020 18:00 24,2 C 21,0 C 30 % 1025,0 hPa 0,0 l/m 7,1 km/h (2 Bft) W 270 10 min 2,8 C 20,7 C 7,1 km/h (2 Bft)
12.07.2020 17:50 24,1 C 21,1 C 28 % 1025,0 hPa 0,0 l/m 6,6 km/h (2 Bft) NW 315 10 min 1,9 C 21,0 C 5,5 km/h (1 Bft)
12.07.2020 17:40 24,0 C 20,8 C 30 % 1025,0 hPa 0,0 l/m 6,4 km/h (2 Bft) W 270 10 min 2,6 C 20,8 C 6,6 km/h (2 Bft)
12.07.2020 17:30 24,0 C 20,3 C 30 % 1025,1 hPa 0,0 l/m 5,5 km/h (1 Bft) W-NW 292 0 min 2,2 C 20,3 C 4,2 km/h (1 Bft)
12.07.2020 17:20 24,1 C 21,4 C 29 % 1025,1 hPa 0,0 l/m 6,6 km/h (2 Bft) W-NW 292 10 min 2,6 C 21,3 C 12,1 km/h (2 Bft)
12.07.2020 17:10 24,0 C 22,0 C 27 % 1024,9 hPa 0,0 l/m 8,5 km/h (2 Bft) W 270 10 min 2,1 C 21,3 C 16,4 km/h (3 Bft)
12.07.2020 17:00 23,8 C 21,6 C 31 % 1024,9 hPa 0,0 l/m 4,0 km/h (1 Bft) W-SW 247 0 min 3,7 C 21,6 C 8,9 km/h (2 Bft)
_ Min-Zeit 07:30 05:09 17:10 16:00 - 21:40 - - - 05:09 05:09 20:20
Minimum _ 21,6 C 6,9 C 27 % 1021,6 hPa - 0,0 km/h (0 Bft) - - - 1,8 C 6,9 C 0,0 km/h (0 Bft)
_ Max-Zeit 18:00 16:30 06:20 17:20 17:00 17:10 - - 17:10 08:20 16:30 17:10
Maximum _ 24,2 C 23,2 C 75 % 1025,1 hPa 0,0 l/m 8,5 km/h
W (2 Bft)
- - 10 min 8,0 C 23,2 C 16,4 km/h
W (3 Bft)
Durchschnitt _ 22,9 C 16,0 C 48 % 1023,9 hPa #0,0 l/m 1,4 km/h (1 Bft) W-NW - #9:10 h 4,0 C 16,0 C 2,2 km/h (1 Bft)

©2020 Markus Bahr